RH
16 16 14 14 12 15 18 21 17 15 14 23 53 59 55 47 47 41 60 65 60 43 41 39 52 98 95 90 88 90 80 79 77 70 65 56 49 50 47 43 30 19 27
13 14 17 16 14 12 14 23 23 18 16 14 26 43 53 55 57 55 55 57 65 70 45 72 77 89 99 93 91 90 85 81 76 67 63 56 47 46 44 38 26 26 25
17 15 15 18 16 13 14 18 24 24 17 15 16 19 35 64 57 49 52 52 53 78 78 87 84 91 96 90 88 83 74 67 58 55 57 50 45 46 40 28 26 25 19
16 17 15 16 19 16 14 13 20 26 21 15 15 16 21 40 62 61 56 66 62 69 64 86 97 94 87 80 69 55 49 46 44 48 45 43 44 46 34 27 27 19 28
13 13 16 15 16 20 16 15 14 25 25 15 15 17 15 16 38 64 60 51 63 79 80 74 82 62 63 41 35 35 40 40 40 42 41 40 35 29 28 24 23 24 28
17 15 14 16 17 17 18 17 15 16 21 19 17 16 14 16 24 49 66 66 56 72 75 82 80 71 59 51 30 31 40 40 42 40 34 31 31 31 23 19 24 37 57
20 20 18 18 17 20 21 21 21 15 21 22 18 19 17 18 18 29 61 78 90 81 72 78 74 46 34 31 30 34 32 30 26 24 28 37 31 21 21 26 40 47 60
16 20 22 23 19 19 24 24 30 25 28 27 22 23 22 20 18 24 54 71 75 70 53 57 56 57 48 43 25 20 22 24 26 39 42 26 20 25 45 54 54 57 55
16 15 23 24 24 20 26 29 36 34 34 32 29 27 28 24 21 26 47 64 57 58 72 74 70 69 54 37 37 33 30 38 49 42 26 27 43 61 62 64 62 54 42
18 13 16 27 30 23 34 34 39 38 33 33 33 32 34 30 31 28 51 72 73 83 77 78 80 66 70 67 50 37 50 54 40 30 36 64 67 66 68 64 51 49 50
28 16 13 23 34 26 35 40 39 39 32 28 34 35 36 36 28 32 64 74 78 82 85 81 76 84 84 50 41 57 59 44 36 50 76 75 72 72 62 50 61 52 44
33 19 18 29 37 31 38 48 39 38 31 30 38 39 37 33 32 35 67 80 88 88 81 74 85 100 61 44 64 63 53 47 74 83 81 77 72 54 60 60 50 47 46
36 27 24 56 50 40 44 49 46 43 41 41 39 39 38 38 33 46 78 84 82 85 74 84 100 86 49 69 69 55 57 92 91 89 82 70 56 66 57 51 50 44 27
32 24 44 69 63 49 44 47 50 52 46 42 40 40 45 53 53 57 70 83 78 74 77 97 98 54 72 73 55 66 97 96 95 85 63 66 68 57 54 51 35 25 20
41 45 51 74 63 48 42 50 49 49 46 42 40 54 68 47 49 55 86 79 97 88 97 98 59 71 72 57 82 97 96 98 81 64 72 65 57 57 43 30 24 18 14
34 56 57 71 64 44 49 45 43 42 40 40 60 68 54 48 55 99 89 86 96 98 92 64 73 72 56 98 98 96 96 71 68 74 64 61 55 36 28 22 20 15 8
90 48 64 66 60 41 39 40 40 56 71 73 60 62 57 60 81 98 99 96 98 83 80 82 52 87 99 96 98 86 65 76 72 68 64 45 33 26 21 19 14 9 8
44 58 61 56 46 39 39 42 45 47 52 50 57 100 80 100 83 98 99 98 88 87 46 82 98 98 98 95 68 70 78 71 69 55 38 31 25 21 14 9 7 7 6
54 52 49 47 50 47 47 48 51 54 63 59 62 97 100 92 100 94 93 77 57 84 98 99 99 99 70 66 79 77 73 68 45 37 29 23 18 11 7 6 7 5 3
64 63 69 70 62 57 57 56 67 87 76 99 98 83 81 99 95 81 90 94 97 99 99 99 73 66 77 80 75 74 61 42 34 25 22 17 10 7 7 7 5 3 9
95 86 76 74 76 73 68 91 86 99 98 97 98 92 87 94 95 90 93 97 99 96 68 67 76 82 79 80 71 51 39 30 24 19 14 9 7 8 9 6 3 13 35
88 88 97 100 100 100 93 75 62 69 81 85 93 89 90 90 92 98 100 83 63 68 78 82 79 78 75 60 43 35 29 24 13 9 8 9 10 11 6 4 15 31 20
97 97 97 97 97 97 97 96 95 95 93 88 91 93 97 99 88 57 61 75 79 86 80 79 74 65 46 37 32 27 19 11 8 8 10 11 9 5 4 16 26 18 16
98 99 97 98 97 97 98 99 100 99 94 96 99 86 50 47 64 81 80 90 83 79 71 68 51 42 36 31 23 13 9 9 8 10 12 8 4 4 15 26 18 17 20
99 98 98 100 100 100 100 98 100 100 86 54 42 44 58 75 77 91 89 85 73 66 56 44 39 35 29 20 11 9 9 9 10 11 6 4 5 14 29 19 20 26 29
96 94 93 95 98 99 98 90 59 43 42 41 46 58 74 90 92 91 77 68 60 48 44 38 33 24 13 12 10 10 10 10 8 5 4 5 14 31 20 22 27 22 22
Wind_Speed
40 42 41 48 45 42 40 41 40 42 44 45 45 44 41 39 36 37 37 38 37 39 39 39 40 41 40 40 39 39 39 39 40 41 42 42 43 43 44 45 46 47 48
42 43 42 42 51 46 43 43 43 42 44 44 46 49 45 41 38 37 38 38 38 39 37 38 38 39 40 42 42 42 42 42 43 44 44 45 45 46 48 48 50 51 50
44 45 45 44 45 51 46 43 45 43 43 43 45 48 47 41 41 40 39 39 40 40 37 37 38 39 40 42 44 46 45 45 46 47 47 47 48 48 48 49 52 52 51
49 47 47 47 47 49 53 49 46 47 44 42 43 45 46 46 42 42 42 40 40 40 37 37 37 38 40 42 44 45 45 45 46 47 49 49 50 51 50 51 52 50 52
56 55 51 51 49 49 52 54 48 49 49 42 40 45 45 42 41 40 42 40 40 40 36 37 39 41 42 44 43 44 45 45 46 48 49 49 51 52 54 52 51 54 56
63 62 59 54 53 51 51 53 54 49 48 44 42 45 42 40 39 42 44 39 38 40 40 40 40 43 45 45 44 45 45 46 46 48 50 50 51 53 55 55 54 56 58
63 62 61 57 56 53 51 51 53 50 49 45 43 44 39 41 42 42 44 39 39 39 40 42 44 45 45 45 45 46 46 47 48 49 49 50 51 52 55 58 61 62 61
61 62 61 59 54 55 52 53 52 51 48 45 43 44 40 42 43 41 41 40 40 38 39 40 42 44 45 46 45 46 47 47 48 48 50 51 52 54 58 61 64 64 64
43 56 60 59 56 53 52 52 52 50 47 45 45 43 42 42 43 43 41 41 39 39 40 41 43 44 45 45 45 46 46 47 48 49 50 51 54 57 61 64 65 68 69
44 40 54 58 53 52 51 52 53 51 48 47 47 45 44 44 43 43 41 40 39 41 42 42 43 44 45 46 46 46 46 48 49 50 52 54 57 61 63 65 67 68 71
42 40 36 56 53 51 51 50 52 51 47 46 47 47 46 45 43 43 42 41 40 41 43 43 44 44 46 46 45 45 47 49 50 52 54 57 60 63 65 66 68 69 71
39 39 36 53 53 51 50 47 47 46 45 45 46 47 46 45 42 43 41 41 40 42 43 44 43 45 46 44 45 47 48 49 51 54 58 61 63 65 66 68 69 69 72
39 41 41 53 51 50 48 43 43 41 43 44 45 44 45 44 43 43 41 40 41 42 42 42 45 47 44 44 46 47 49 51 54 58 61 62 64 66 67 69 70 73 74
37 37 49 48 46 46 43 41 39 40 41 43 44 44 43 40 41 40 39 39 43 41 40 44 47 45 43 45 47 49 51 54 57 60 62 64 66 66 68 70 72 76 80
36 28 45 43 43 39 37 40 37 39 42 42 44 41 39 38 38 38 38 40 41 42 41 45 44 43 44 46 48 51 54 56 59 61 64 65 66 67 69 72 77 82 86
26 21 38 41 40 31 33 35 36 38 40 41 38 37 35 35 37 38 38 40 40 39 42 40 42 43 45 47 50 54 55 58 60 62 63 65 66 69 73 77 82 87 95
12 15 35 35 33 29 30 31 33 34 34 35 32 30 32 34 36 32 32 42 42 42 40 42 42 43 46 50 52 54 56 59 60 62 63 65 69 73 78 83 87 94 102
16 28 30 29 28 27 28 30 30 30 29 27 31 36 34 33 44 40 41 40 36 37 38 40 42 46 48 51 52 55 58 58 60 61 65 69 74 78 82 87 93 99 102
25 26 26 25 22 22 21 22 21 20 22 23 26 30 32 37 42 39 31 30 34 37 38 42 45 46 49 51 54 56 57 58 59 64 69 74 77 81 87 94 99 99 85
21 21 19 17 17 16 16 17 17 15 20 30 32 31 37 40 33 31 32 32 33 38 42 42 45 47 51 52 54 55 56 58 63 67 74 77 81 88 94 98 97 80 58
17 16 16 17 16 16 15 27 29 23 35 30 29 32 37 29 24 27 29 34 36 38 41 43 46 49 50 51 53 55 58 62 67 72 76 81 88 93 98 93 75 54 44
17 21 22 22 22 23 27 28 28 29 32 27 19 16 20 23 26 29 31 35 37 39 42 44 46 48 48 50 53 58 62 67 70 75 81 87 93 97 90 70 50 44 44
13 11 11 11 14 16 15 13 12 11 11 13 16 19 22 25 27 31 33 35 37 40 42 44 45 46 48 52 56 62 66 69 75 83 89 94 95 86 64 45 40 41 42
8 8 8 7 8 10 11 10 10 9 11 15 18 20 23 27 29 30 33 36 38 41 42 42 44 48 52 57 61 66 72 76 82 88 93 91 78 60 41 36 37 39 41
2 2 5 4 2 2 5 7 10 12 13 16 19 23 25 27 29 32 34 37 39 39 39 43 47 51 56 60 65 72 76 81 89 92 85 70 52 36 32 32 35 38 39
3 1 0 2 3 5 6 8 11 13 17 20 22 24 26 29 31 34 35 36 35 38 42 46 51 56 61 64 73 77 83 91 91 79 62 45 31 27 28 30 34 35 38
Wind_Direction
263 261 256 245 247 246 251 255 258 257 256 255 255 257 261 263 263 265 267 268 270 270 265 266 266 267 267 270 274 276 279 281 284 287 290 292 291 292 293 295 296 294 295
261 263 263 252 245 246 247 248 252 254 256 256 256 257 258 262 264 264 268 273 271 271 265 266 268 267 269 271 273 276 279 283 285 287 289 290 290 293 296 297 297 296 297
259 258 260 258 248 244 243 247 250 251 253 255 255 257 260 261 263 268 271 270 270 271 264 265 266 269 271 271 273 276 280 282 286 287 288 288 289 292 295 297 297 298 297
261 255 255 257 255 247 244 243 245 249 249 251 251 255 257 256 260 265 270 270 269 273 268 269 272 271 272 274 275 277 280 282 284 287 289 290 290 292 294 294 295 294 294
261 259 254 253 254 249 246 242 241 243 247 246 247 251 255 257 256 262 267 270 268 269 271 270 272 274 275 275 276 279 281 283 286 287 288 289 292 294 295 296 296 297 298
256 255 254 251 252 252 247 244 241 241 245 245 243 248 255 257 255 258 263 269 270 269 269 271 273 275 276 277 279 281 283 286 287 288 289 292 294 295 296 296 296 297 299
252 249 250 247 244 247 248 244 241 238 243 245 241 247 253 256 256 258 263 268 268 271 271 272 273 276 278 279 280 283 285 287 287 289 291 294 296 296 296 296 298 300 300
254 249 245 244 241 241 242 240 239 236 237 244 241 245 250 254 255 259 263 267 267 268 270 271 275 277 280 282 284 286 286 286 288 291 294 296 296 297 298 300 301 300 299
267 248 243 242 239 236 238 237 234 237 235 239 241 245 248 252 254 256 259 265 268 269 271 274 276 278 283 286 287 287 287 288 291 293 294 296 298 300 301 302 301 300 300
269 270 243 238 235 233 233 232 230 234 235 236 239 243 245 248 251 256 260 265 265 268 271 274 277 281 285 287 288 287 288 290 293 295 297 299 301 302 301 301 301 303 304
257 265 255 233 230 227 229 230 227 231 235 237 239 243 244 244 249 253 259 265 267 269 273 275 278 282 286 287 287 288 290 293 295 298 300 301 302 302 302 303 304 304 304
251 254 252 224 222 221 225 226 225 228 232 234 237 241 244 245 248 254 259 266 270 272 276 279 282 284 287 287 288 290 294 296 299 300 302 302 302 304 304 305 305 305 305
245 250 236 215 213 215 219 222 220 223 228 230 236 241 244 245 248 254 260 266 271 275 280 284 284 287 287 288 291 293 296 299 300 301 302 303 305 305 305 305 306 306 306
242 242 219 209 203 209 214 215 215 221 225 230 235 239 243 245 250 257 264 271 274 275 281 281 285 286 287 291 293 296 299 300 301 302 304 305 305 306 306 307 307 308 309
235 245 220 199 195 202 207 209 211 217 223 229 235 237 240 248 255 261 267 269 270 277 277 281 285 286 289 293 296 298 299 300 302 303 304 305 306 307 308 308 309 309 310
239 235 210 190 192 193 198 202 209 215 222 228 233 240 248 254 256 261 265 271 274 273 282 283 285 289 293 295 296 298 300 302 304 304 306 307 308 309 309 310 310 310 311
194 203 186 182 187 188 193 201 211 215 220 227 236 243 250 258 271 265 271 268 270 280 283 284 288 292 293 295 298 301 302 303 304 307 308 310 310 310 311 311 311 311 312
139 171 168 173 182 189 197 204 212 218 223 230 234 233 241 250 265 264 267 271 281 283 285 288 290 291 294 298 300 302 303 305 308 309 310 310 310 311 312 314 313 313 312
142 150 159 170 181 192 199 206 213 217 219 226 246 242 265 265 260 269 276 283 280 283 287 287 291 296 299 300 302 304 306 308 309 310 311 310 312 313 313 315 315 315 313
142 149 156 164 169 171 180 190 194 207 222 221 237 242 261 268 274 276 280 285 286 286 289 294 299 299 300 303 305 307 309 309 310 310 311 312 313 314 314 315 316 315 312
120 123 132 147 155 167 193 212 203 212 225 232 248 254 261 271 282 285 287 288 290 294 298 298 299 302 303 306 308 309 310 311 311 313 313 314 315 315 315 316 315 313 312
157 159 164 171 177 188 204 218 225 233 240 249 255 273 282 285 289 290 292 295 296 297 298 300 302 305 307 309 310 310 311 312 315 317 317 316 316 315 315 314 312 313 316
109 136 161 176 195 203 204 203 208 214 235 265 276 281 287 290 292 293 294 295 296 297 300 305 308 310 310 310 311 313 313 313 316 317 317 316 314 313 312 311 314 316 319
142 144 141 145 162 174 193 214 237 263 276 277 281 286 289 290 291 292 294 298 300 305 308 310 310 310 311 313 313 314 313 313 315 316 315 313 312 311 310 314 319 321 321
53 119 139 143 158 231 251 260 263 270 281 290 293 293 293 292 294 298 300 304 308 309 310 310 311 312 312 312 313 315 314 315 316 315 312 312 311 310 314 320 323 323 324
84 69 286 250 257 264 273 290 297 296 295 296 297 297 297 299 301 303 308 309 310 310 310 311 313 314 313 314 316 317 317 318 316 314 313 311 311 312 319 324 326 330 332